SCP
0 0 0 0 0 0 0 0 0 0 0 0 0 0 0 0 0 0 0 0 0 0 0 0 0 0 1 0 0 0 0 0 0 0 0 0 0 0 0 0 1 1 1 1
0 0 0 0 0 0 0 0 0 0 0 0 0 0 0 0 0 0 0 0 0 0 0 0 0 0 0 0 0 0 0 0 0 0 0 0 0 0 0 0 0 1 1 1
0 0 0 0 0 0 0 0 0 0 0 0 0 0 0 0 0 0 0 0 0 0 0 0 0 0 0 0 0 0 0 0 0 0 0 0 0 0 0 0 0 0 1 1
0 0 0 0 0 0 0 0 0 0 0 0 0 0 0 0 0 0 0 0 0 0 0 0 0 0 0 0 0 0 0 0 0 0 0 0 0 0 0 0 0 0 0 1
0 0 0 0 0 0 0 0 0 0 0 0 0 0 0 0 0 0 0 0 0 0 0 0 0 0 0 0 0 0 0 0 0 0 0 0 0 0 0 0 0 0 0 0
0 0 0 0 0 0 0 0 0 0 0 0 0 0 0 0 0 0 0 0 0 0 0 0 0 0 0 0 0 0 0 0 0 0 0 0 0 0 0 0 0 0 0 0
0 0 0 0 0 0 0 0 0 0 0 0 0 0 0 0 0 0 0 0 0 0 0 0 0 0 0 0 0 0 0 0 0 0 0 0 0 0 0 0 0 0 0 0
0 0 0 0 0 0 0 0 0 0 0 0 0 0 0 0 0 0 0 0 0 0 0 0 0 0 0 0 0 0 0 0 0 0 0 0 0 0 0 0 0 0 0 0
0 0 0 0 0 0 0 0 0 0 0 0 0 0 0 0 0 0 0 0 0 0 0 0 0 0 0 0 0 0 0 0 0 0 0 0 0 0 0 0 0 0 0 0
0 0 0 0 0 0 0 0 0 0 0 0 0 0 0 0 0 0 0 0 0 0 0 0 0 0 0 0 0 0 0 0 0 0 0 0 0 0 0 0 0 0 0 0
0 0 0 0 0 0 0 0 0 0 0 0 0 0 0 0 0 0 0 0 0 0 0 0 0 0 0 0 0 0 0 0 0 0 0 0 0 0 0 0 0 0 0 0
0 0 0 0 0 0 0 0 0 0 0 0 0 0 0 0 0 0 0 0 0 0 0 0 0 0 0 0 0 0 0 0 0 0 0 0 0 0 0 0 0 0 0 0
0 0 0 0 0 0 0 0 0 0 0 0 0 0 0 0 0 0 0 0 0 0 0 0 0 0 0 0 0 0 0 0 0 0 0 0 0 0 0 0 0 0 0 0
0 0 0 0 0 0 0 0 0 0 0 0 0 0 0 0 0 0 0 0 0 0 0 0 0 0 0 0 0 0 0 0 0 0 0 0 0 0 0 0 0 0 0 0
0 0 0 0 0 0 0 0 0 0 0 0 0 0 0 0 0 0 0 0 0 0 0 0 0 0 0 0 0 0 0 0 0 0 0 0 0 0 0 0 0 0 0 0
0 0 0 0 0 0 0 0 0 0 0 0 0 0 0 0 0 0 0 0 0 0 0 0 0 0 0 0 0 0 0 0 0 0 0 0 0 0 0 0 0 0 0 0
0 0 0 0 0 0 0 0 0 0 0 0 0 0 0 0 0 0 0 0 0 0 0 0 0 0 0 0 0 0 0 0 0 0 0 0 0 0 0 0 0 0 0 0
0 0 0 0 0 0 0 0 0 0 0 0 0 0 0 0 0 0 0 0 0 0 0 0 0 0 0 0 0 0 0 0 0 0 0 0 0 0 0 0 0 0 0 0
0 0 0 0 0 0 0 0 0 0 0 0 0 0 0 0 0 0 0 0 0 0 0 0 0 0 0 0 0 0 0 0 0 0 0 0 0 0 0 0 0 0 0 0
0 0 0 0 0 0 0 0 0 0 0 0 0 0 0 0 0 0 0 0 0 0 0 0 0 0 0 0 0 0 0 0 0 0 0 0 0 0 0 0 0 0 0 0
0 0 0 0 0 0 0 0 0 0 0 0 0 0 0 0 0 0 0 0 0 0 0 0 0 0 0 0 0 0 0 0 0 0 0 0 0 0 0 0 0 0 0 0
0 0 0 0 0 0 0 0 0 0 0 0 0 0 0 0 0 0 0 0 0 0 0 0 0 0 0 0 0 0 0 0 0 0 0 0 0 0 0 0 0 0 0 0
0 0 0 0 0 0 0 0 0 0 0 0 0 0 0 0 0 0 0 0 0 0 0 0 0 0 0 0 0 0 0 0 0 0 0 0 0 0 0 0 0 0 0 0
0 0 0 0 0 0 0 0 0 0 0 0 0 0 0 0 0 0 0 0 0 0 0 0 0 0 0 0 0 0 0 0 0 0 0 0 0 0 0 0 0 0 0 0
0 0 0 0 0 0 0 0 0 0 0 0 0 0 0 0 0 0 0 0 0 0 0 0 0 0 0 0 0 0 0 0 0 0 0 0 0 0 0 0 0 0 0 0
0 0 0 0 0 0 0 0 0 0 0 0 0 0 0 0 0 0 0 0 0 0 0 0 0 0 0 0 0 0 0 0 0 0 0 0 0 0 0 0 0 0 0 0
0 0 0 0 0 0 0 0 0 0 0 0 0 0 0 0 0 0 0 0 0 0 0 0 0 0 0 0 0 0 0 0 0 0 0 0 0 0 0 0 0 0 0 0
Wind_Speed
6 5 4 4 5 5 7 8 8 8 8 9 6 5 4 2 1 0 0 1 1 2 2 2 2 2 3 4 4 4 5 5 5 4 4 4 4 4 4 4 4 4 3 3
3 3 4 5 6 6 7 6 7 6 8 5 3 1 2 2 2 2 2 2 2 2 2 2 3 3 3 3 4 4 5 5 4 3 3 4 4 4 3 3 3 3 3 3
4 3 2 6 6 6 5 4 5 7 8 3 1 2 4 3 3 4 4 3 3 3 4 4 4 3 3 4 3 4 5 4 4 4 4 4 3 3 4 4 3 3 3 3
1 0 6 7 3 5 5 4 4 3 3 3 4 3 2 2 3 4 4 3 3 3 3 3 2 2 2 2 3 4 4 4 4 4 4 4 4 3 3 3 4 4 3 4
2 3 7 6 2 3 4 4 3 4 3 2 0 2 2 2 3 4 4 3 3 3 2 2 1 2 2 2 2 3 3 4 4 5 5 4 5 4 4 3 3 3 3 3
3 3 6 6 3 2 2 4 3 3 4 2 2 0 5 3 2 2 2 1 1 1 0 1 1 2 2 2 2 3 4 3 3 4 5 5 5 4 3 4 4 3 3 3
4 5 8 6 3 2 3 6 3 3 4 4 4 5 4 2 2 1 1 1 1 1 1 1 1 2 2 2 3 3 3 2 3 3 4 4 4 3 3 3 3 3 3 3
4 4 8 2 2 4 6 3 2 2 2 3 3 3 2 1 1 1 0 0 1 1 0 0 1 2 1 2 2 1 2 2 2 2 2 2 3 3 3 4 3 3 2 2
7 7 5 2 4 4 2 2 2 2 2 2 2 2 2 2 2 1 1 1 1 2 0 1 0 1 1 1 1 2 2 2 1 1 1 2 3 3 3 3 3 2 2 2
4 6 5 4 3 2 2 2 2 1 1 2 2 2 2 2 2 2 1 1 1 2 1 1 1 1 1 1 1 3 2 2 2 2 2 2 2 2 3 3 3 3 3 3
5 6 4 4 3 3 2 2 2 1 1 2 2 2 2 2 2 2 2 1 1 2 2 1 1 1 1 0 2 2 2 2 2 2 2 2 1 1 2 2 3 4 3 3
7 6 4 6 5 3 2 2 2 1 2 1 2 3 2 2 2 2 2 1 1 1 2 1 1 1 1 1 2 3 2 2 2 2 2 2 2 1 1 1 2 3 3 3
6 4 4 4 3 2 2 3 2 2 2 2 2 2 2 2 2 1 1 1 2 3 2 1 1 1 1 1 1 2 2 2 2 2 2 2 2 2 1 1 1 1 2 3
4 2 3 3 3 3 2 2 2 1 2 2 2 1 1 1 1 1 2 3 2 2 1 2 1 2 2 1 1 2 2 2 2 2 2 2 2 2 2 2 1 0 0 1
3 3 4 3 2 2 2 1 1 2 2 2 1 1 1 1 2 3 2 1 2 1 1 2 2 2 1 1 2 2 1 1 1 1 1 1 1 2 2 2 2 1 0 1
3 2 1 1 2 2 2 1 2 3 3 2 2 2 2 2 2 1 1 2 2 2 2 1 2 2 1 1 2 1 1 2 2 2 1 1 1 1 1 2 2 1 1 0
2 2 2 2 3 3 3 3 4 4 3 3 3 3 1 1 0 0 0 1 1 1 1 2 2 1 1 2 2 1 1 2 3 2 1 1 1 2 2 2 1 1 0 0
5 5 4 4 4 4 4 3 3 3 4 4 3 2 1 2 2 2 1 1 1 1 1 1 1 1 1 2 2 1 1 1 2 2 1 1 1 1 1 2 2 1 0 0
4 4 4 4 4 3 3 3 3 3 3 2 2 2 2 2 2 2 1 2 1 1 2 1 1 1 1 1 2 2 2 2 2 1 1 2 1 1 1 1 1 1 1 1
3 2 3 3 2 2 2 2 2 2 1 1 1 1 1 1 1 2 2 1 2 2 1 1 1 1 1 1 2 2 2 2 2 1 1 1 2 1 1 1 1 1 1 1
2 2 2 2 2 2 2 2 1 1 1 1 2 2 2 1 1 2 2 1 2 0 1 1 1 1 0 1 2 2 2 2 2 2 2 1 1 1 1 1 1 1 1 1
2 2 2 2 2 2 2 1 1 1 0 0 1 1 2 1 0 0 1 2 1 0 0 0 1 1 1 2 2 2 2 1 1 1 1 1 2 1 1 1 1 1 1 1
2 2 2 2 2 2 1 1 1 1 1 1 1 2 2 2 2 2 1 1 1 1 1 1 1 2 2 2 2 2 2 2 1 1 1 1 1 2 1 2 1 1 1 1
2 2 2 1 0 1 1 1 1 1 1 1 1 1 2 1 0 1 1 1 0 1 1 1 1 2 2 2 1 1 1 1 1 1 1 1 1 1 1 1 1 2 2 2
2 1 1 1 1 2 2 1 0 0 0 0 0 0 1 2 2 1 1 1 1 1 1 0 1 2 2 1 1 1 1 1 1 1 1 1 1 1 1 2 2 2 2 2
2 2 2 2 2 2 2 1 1 1 1 0 0 0 0 0 1 1 1 1 1 1 1 1 1 1 1 1 1 1 1 0 0 0 1 1 1 1 1 2 2 2 2 3
1 1 0 1 1 1 1 2 2 1 1 2 1 1 1 1 1 1 1 1 1 1 1 1 0 1 1 1 0 0 0 0 1 1 1 1 1 2 2 2 2 2 2 3
Wind_Direction
237 242 221 228 231 209 204 204 208 234 235 250 248 244 246 241 218 155 276 263 223 219 233 225 214 207 198 201 190 180 177 187 202 200 189 180 179 185 183 183 189 188 181 189
268 256 234 249 247 230 231 227 228 242 258 257 247 238 251 236 197 195 224 240 243 233 230 230 222 220 212 205 197 181 185 199 198 183 182 186 186 180 177 178 178 175 183 188
259 291 323 262 233 216 219 222 201 224 245 258 247 246 239 233 216 218 225 224 230 233 228 229 225 211 212 214 189 181 191 194 186 181 182 190 185 172 179 183 175 181 195 193
228 41 238 248 242 212 211 235 219 221 237 220 221 244 253 223 211 231 235 232 235 238 244 242 222 213 213 191 177 182 192 190 182 177 182 179 168 180 193 187 185 194 196 199
149 223 271 291 281 202 204 244 225 215 229 238 221 31 315 259 227 231 236 237 235 234 235 234 206 181 166 180 176 177 195 200 194 182 180 177 181 188 188 181 192 199 196 193
153 200 242 251 273 241 153 259 246 196 208 212 120 118 264 265 256 256 261 250 242 246 130 180 200 141 140 177 178 201 213 209 194 182 184 188 192 189 181 182 194 193 201 205
190 223 258 257 281 96 167 250 257 203 204 193 196 218 242 263 261 241 249 234 142 125 147 213 175 144 152 177 212 221 206 183 177 181 187 187 181 175 168 174 173 185 202 216
177 209 251 261 125 182 229 263 259 232 217 209 232 252 265 256 245 228 283 103 107 109 307 290 147 146 171 229 236 192 161 157 165 168 178 171 164 164 160 160 164 180 193 213
197 219 245 247 226 255 246 249 257 243 244 202 215 247 264 260 247 231 205 183 155 144 114 342 354 162 206 259 190 142 139 149 154 149 151 148 151 158 153 156 166 187 193 202
248 262 263 267 267 276 258 258 266 236 206 186 219 240 249 253 258 254 243 225 178 141 144 299 317 334 256 229 148 139 146 156 157 153 149 143 146 159 161 171 181 189 196 206
254 271 294 283 264 263 282 301 310 306 252 217 203 236 238 245 247 243 244 243 200 181 196 241 306 328 323 173 144 147 156 162 163 162 158 151 152 167 178 191 191 194 203 197
233 236 227 260 276 261 254 276 272 279 303 289 220 229 241 251 246 228 219 215 203 202 199 214 200 295 309 270 171 161 163 174 172 165 163 155 141 85 38 179 198 199 194 191
244 256 238 263 285 273 242 259 265 251 241 263 272 243 240 256 246 226 216 205 210 216 210 198 193 247 275 248 187 180 174 177 170 165 167 166 162 161 171 11 97 166 186 191
247 242 263 264 271 289 281 278 281 279 270 257 260 272 252 260 249 227 232 228 211 190 189 190 195 249 261 237 186 186 174 179 164 168 169 171 174 177 173 170 178 292 258 187
256 235 229 246 275 299 301 309 334 307 299 309 306 280 245 237 239 241 240 206 147 151 194 196 210 256 264 178 175 171 163 160 151 149 148 153 155 159 164 168 171 177 13 347
260 274 245 244 269 287 298 291 272 277 276 275 286 281 263 244 237 234 199 159 149 188 216 202 229 252 206 157 154 158 171 157 131 130 129 124 129 142 151 152 154 158 182 240
210 245 259 271 273 277 272 261 250 254 255 246 252 263 256 228 182 122 68 121 157 191 209 203 227 231 148 143 145 154 145 144 128 115 124 135 146 156 156 145 146 152 179 152
217 218 218 223 238 256 271 271 258 247 241 240 234 224 199 186 201 216 206 114 82 46 341 249 199 151 142 136 136 136 137 134 134 141 143 146 146 143 136 138 143 141 94 69
231 224 232 237 236 235 251 263 266 256 250 227 200 207 214 208 200 194 161 138 145 249 287 283 163 101 114 151 129 129 138 137 130 133 146 151 141 134 145 154 156 160 161 159
248 237 236 247 245 240 253 262 261 266 257 200 179 177 195 224 194 166 150 179 231 229 232 213 114 106 126 152 132 128 138 142 146 146 143 146 151 149 158 173 174 169 173 194
260 259 253 248 256 258 248 242 223 239 261 184 175 189 199 216 183 152 141 235 286 272 168 167 118 133 165 154 130 117 126 135 150 161 160 162 160 159 169 178 178 183 192 203
274 259 259 256 255 273 274 244 206 202 189 180 196 174 156 158 153 127 203 218 240 224 103 135 150 176 161 114 108 118 125 134 145 151 155 160 165 180 192 191 196 205 208 214
281 269 260 252 243 253 288 268 203 177 181 191 196 193 191 201 189 175 251 268 231 182 122 170 174 152 120 103 116 127 136 142 148 158 171 181 189 192 197 199 205 212 215 228
283 280 272 262 194 152 238 257 231 208 198 197 197 193 177 171 251 233 210 219 156 116 118 164 149 137 105 98 110 125 143 153 162 173 184 189 193 197 205 210 216 225 228 230
268 271 289 239 198 216 220 219 156 124 109 70 322 247 192 177 182 199 165 159 152 91 76 48 87 91 89 103 117 137 160 180 185 178 189 197 205 206 216 223 227 230 235 241
249 233 232 229 220 211 191 167 167 191 177 199 283 273 146 120 144 138 125 112 105 86 66 58 79 85 91 111 131 164 176 203 258 215 206 216 223 225 234 241 243 242 245 248
257 237 256 308 296 223 179 166 175 199 201 191 213 223 178 142 127 119 110 103 95 82 73 68 91 119 126 136 165 192 180 184 202 209 215 223 228 238 241 241 244 247 248 250